User: anonymous   Login
Location: Oshawa
(43.9000°N, 78.8670°W)
Time: 06:57:28
(UTC-04:00)
Language:

Explorer 11/Cluster Stage 4 - Orbit

View from above orbital plane
View from above orbital plane
View from above satellite
View from above satellite

Ground track
Ground track

The orbit data is extracted from the following two-line orbital elements,

1 00107U 61013A   15114.09130123  .00002944  00000-0  38406-3 0  9993
2 00107 028.7903 355.4871 0555299 187.9063 326.1719 14.06797132700355
Epoch (UTC): 24 April 2015 02:11:28
Eccentricity: 0.0555299
inclination: 28.7903°
perigee height: 468 km
apogee height: 1273 km
right ascension of ascending node: 355.4871°
argument of perigee: 187.9063°
revolutions per day: 14.06797132
mean anomaly at epoch: 326.1719°
orbit number at epoch: 70035

The dashed part of the orbit path shows where the satellite is in the earth's shadow,  

DLR